Stations météo

réclame
Mon MeteoGroup
Solenzara, France (7765): Température de l'air & dewpoint: 17.10.2018 12:00:00 - 23.10.2018 12:00:00 (CEST)Solenzara, France (7765): Température de l'air 5cm: 17.10.2018 12:00:00 - 23.10.2018 12:00:00 (CEST)Solenzara, France (7765): Température de l'air -20cm: 17.10.2018 12:00:00 - 23.10.2018 12:00:00 (CEST)Solenzara, France (7765): Vitesse du vent & gusts: 17.10.2018 12:00:00 - 23.10.2018 12:00:00 (CEST)Solenzara, France (7765): Direction du vent: 17.10.2018 12:00:00 - 23.10.2018 12:00:00 (CEST)Solenzara, France (7765): reduced air pressure: 17.10.2018 12:00:00 - 23.10.2018 12:00:00 (CEST)Solenzara, France (7765): visibility: 17.10.2018 12:00:00 - 23.10.2018 12:00:00 (CEST)Solenzara, France (7765): Ensoleillement: 17.10.2018 12:00:00 - 23.10.2018 12:00:00 (CEST)Solenzara, France (7765): Quantités de précipitations: 17.10.2018 12:00:00 - 23.10.2018 12:00:00 (CEST)
Date & Time tt [°C] td [°C] tt 5cm [°C] tt -20cm [°C] ff [km/h] ff [knt] fx [km/h] fx [knt] dd ppp [hPa] vv [km] sd [min] rr [mm]
23.10.2018 12:00:00 20,7 9,9 20,4 18,4 36 19 52 28 NNE 1021,4 31 60 0,0
23.10.2018 11:00:00 19,9 10,0 18,8 18,4 29 16 40 21 NNE 1021,4 39 60 0,0
23.10.2018 10:00:00 18,7 9,7 15,4 18,4 21 11 34 19 N 1021,4 42 60 0,0
23.10.2018 09:00:00 15,6 8,6 12,9 18,5 9 5 20 11 N 1021,2 37 50 0,0
23.10.2018 08:00:00 14,8 6,6 11,4 18,6 12 6 29 15 NNW 1020,4 46 0 0,0
23.10.2018 07:00:00 14,2 6,5 11,6 18,7 18 10 26 14 N 1020,2 47 0 0,0
23.10.2018 06:00:00 14,8 6,1 12,3 18,7 9 5 28 15 N 1020,1 51 0 0,0
23.10.2018 05:00:00 15,7 6,9 13,8 18,8 14 7 34 18 N 1020,1 46 0 0,0
23.10.2018 04:00:00 16,2 7,4 13,7 18,9 21 12 32 17 N 1020,6 52 0 0,0
23.10.2018 03:00:00 15,7 6,1 13,9 18,9 19 10 36 19 N 1020,8 60 0 0,0
23.10.2018 02:00:00 15,9 5,8 12,8 19,0 11 6 30 16 NNW 1020,6 60 0 0,0
23.10.2018 01:00:00 15,1 5,6 12,0 19,1 14 8 22 12 NNW 1020,4 60 0 0,0
23.10.2018 00:00:00 14,8 5,3 13,3 19,2 14 8 34 18 N 1020,3 60 0 0,0
22.10.2018 23:00:00 15,5 4,8 14,0 19,3 18 10 40 22 N 1019,9 60 0 0,0
22.10.2018 22:00:00 15,3 5,2 13,0 19,4 23 12 35 19 N 1019,5 20 0 0,0
22.10.2018 21:00:00 14,1 6,0 12,2 19,4 16 9 28 15 N 1019,0 57 0 0,0
22.10.2018 20:00:00 14,5 6,3 10,5 19,5 11 6 18 10 NNW 1018,3 60 0 0,0
22.10.2018 19:00:00 15,7 6,7 13,0 19,5 9 5 29 15 NNW 1017,5 60 0 0,0
22.10.2018 18:00:00 17,0 7,1 14,6 19,5 8 4 37 20 NW 1016,8 60 48 0,0
22.10.2018 17:00:00 18,1 6,6 17,6 19,4 30 16 45 25 NNE 1016,7 40 60 0,0
22.10.2018 16:00:00 18,6 7,7 18,4 19,4 31 17 50 27 NNE 1016,7 24 60 0,0
22.10.2018 15:00:00 18,8 6,9 19,0 19,3 33 18 52 28 NNE 1016,9 25 60 0,0
22.10.2018 14:00:00 18,6 7,4 18,6 19,3 37 20 70 38 NNE 1017,2 30 60 0,0
22.10.2018 13:00:00 18,0 6,8 17,5 19,3 42 23 59 32 NNE 1017,8 41 56 0,0
22.10.2018 12:00:00 17,8 6,9 16,9 19,4 34 19 46 25 NNE 1018,3 60 60 0,0
22.10.2018 11:00:00 16,5 6,3 14,3 19,6 28 15 45 24 N 1018,2 19 37 0,0
22.10.2018 10:00:00 14,7 5,2 13,7 19,7 21 12 33 18 N 1018,8 60 2 0,0
22.10.2018 09:00:00 14,3 4,6 12,8 19,9 20 11 40 22 N 1018,8 5 2 0,0
22.10.2018 08:00:00 14,0 4,0 12,6 20,1 26 14 40 21 N 1018,2 60 0 0,0
22.10.2018 07:00:00 13,8 4,4 12,1 20,2 23 13 47 25 N 1018,5 60 0 0,0
22.10.2018 06:00:00 14,4 2,6 12,6 20,5 27 15 42 23 N 1018,0 60 0 0,0
22.10.2018 05:00:00 14,4 2,9 12,8 20,6 22 12 49 27 N 1017,7 60 0 0,0
22.10.2018 04:00:00 15,2 5,4 12,3 20,7 31 17 49 26 NNE 1017,9 60 0 0,0
22.10.2018 03:00:00 15,2 8,0 12,3 20,9 10 5 32 18 NNW 1018,6 60 0 0,0
22.10.2018 02:00:00 15,7 11,3 13,8 21,0 8 4 21 11 NW 1018,9 60 0 0,0
22.10.2018 01:00:00 16,4 12,2 13,6 21,1 10 5 48 26 NW 1019,3 48 0 0,0
22.10.2018 00:00:00 16,8 12,5 14,5 21,2 30 16 54 29 NNE 1019,0 19 0 2,0
21.10.2018 23:00:00 19,8 15,0 16,8 21,3 7 4 19 10 NNE 1016,8 21 0 0,0
21.10.2018 22:00:00 18,5 13,8 16,2 21,3 10 5 20 11 W 1016,3 24 0 0,0
21.10.2018 21:00:00 17,8 14,1 16,1 21,3 9 5 17 9 W 1015,7 22 0 0,0
21.10.2018 20:00:00 18,2 14,7 16,3 21,3 7 4 15 8 WNW 1015,3 21 0 0,0
21.10.2018 19:00:00 19,3 16,0 16,9 21,3 6 3 10 5 WNW 1015,0 16 0 0,0
21.10.2018 18:00:00 20,5 16,3 19,3 21,2 6 3 8 4 SSE 1014,3 21 41 0,0
21.10.2018 17:00:00 22,0 15,8 21,5 21,1 5 3 11 6 SE 1015,0 21 60 0,0
21.10.2018 16:00:00 22,3 15,6 21,7 20,9 4 2 15 8 ESE 1015,8 18 55 0,0
21.10.2018 15:00:00 23,0 15,8 24,8 20,7 10 5 17 9 E 1016,2 37 60 0,0
21.10.2018 14:00:00 22,7 15,5 25,0 20,5 12 7 21 11 SSE 1016,4 19 60 0,0
21.10.2018 13:00:00 23,1 14,4 24,8 20,4 10 5 13 7 SSE 1017,4 30 60 0,0
21.10.2018 12:00:00 23,2 13,4 24,1 20,3 7 4 10 5 SE 1018,4 20 60 0,0
21.10.2018 11:00:00 22,2 14,6 20,0 20,3 5 3 9 5 E 1018,7 26 60 0,0
21.10.2018 10:00:00 19,9 14,3 17,5 20,4 0 0 15 8 N 1019,3 27 60 0,0
21.10.2018 09:00:00 17,9 11,5 14,3 20,5 9 5 21 11 W 1018,9 26 57 0,0
21.10.2018 08:00:00 16,6 10,9 13,8 20,6 13 7 21 11 W 1019,0 36 0 0,0
21.10.2018 07:00:00 17,1 10,9 14,3 20,7 12 7 22 12 W 1019,2 40 0 0,0
21.10.2018 06:00:00 17,1 11,4 14,3 20,8 12 7 19 10 W 1019,7 37 0 0,0
21.10.2018 05:00:00 17,9 11,5 14,6 20,9 11 6 19 11 W 1019,6 40 0 0,0
21.10.2018 04:00:00 17,5 13,0 15,1 21,0 11 6 20 11 W 1020,0 33 0 0,0
21.10.2018 03:00:00 17,4 13,9 15,0 21,1 11 6 19 10 W 1020,6 27 0 0,0
21.10.2018 02:00:00 17,3 14,4 14,7 21,2 12 6 16 9 W 1021,0 24 0 0,0
21.10.2018 01:00:00 16,9 14,7 14,4 21,3 7 4 11 6 NW 1021,3 15 0 0,0
21.10.2018 00:00:00 18,0 14,7 15,7 21,3 7 4 19 10 WNW 1021,3 22 0 0,0
20.10.2018 23:00:00 18,1 15,2 15,6 21,4 7 4 18 10 W 1021,6 22 0 0,0
20.10.2018 22:00:00 18,4 15,3 16,3 21,5 9 5 16 8 W 1021,2 25 0 0,0
20.10.2018 21:00:00 19,0 15,7 16,8 21,5 8 4 14 8 W 1021,0 26 0 0,0
20.10.2018 20:00:00 19,1 16,3 17,2 21,5 9 5 14 8 W 1021,2 21 0 0,0
20.10.2018 19:00:00 19,9 17,1 17,6 21,4 8 4 11 6 W 1020,9 18 0 0,0
20.10.2018 18:00:00 21,8 16,3 19,4 21,3 0 0 9 5 N 1020,6 28 37 0,0
20.10.2018 17:00:00 22,9 15,5 22,2 21,2 3 2 9 5 ENE 1020,7 43 26 0,0
20.10.2018 16:00:00 22,2 17,3 22,5 21,0 0 0 9 5 N 1020,8 13 17 0,0
20.10.2018 15:00:00 22,7 16,7 23,5 20,8 4 2 11 6 SSE 1021,1 20 47 0,0
20.10.2018 14:00:00 22,8 17,5 26,0 20,6 6 4 11 6 ESE 1021,4 18 60 0,0
20.10.2018 13:00:00 23,4 18,3 25,6 20,4 6 3 11 6 ESE 1021,9 20 60 0,0
20.10.2018 12:00:00 23,2 19,1 24,9 20,3 8 4 11 6 ESE 1021,8 19 60 0,0
20.10.2018 11:00:00 23,0 18,1 22,7 20,3 5 3 9 5 SE 1021,4 20 60 0,0
20.10.2018 10:00:00 22,6 18,2 19,1 20,3 0 0 8 4 N 1021,1 20 60 0,0
20.10.2018 09:00:00 18,8 15,5 15,5 20,4 6 3 16 8 W 1020,8 23 51 0,0
20.10.2018 08:00:00 17,2 14,7 15,1 20,5 10 6 16 8 W 1020,0 20 0 0,0
20.10.2018 07:00:00 17,0 14,8 15,1 20,6 9 5 15 8 W 1019,8 19 0 0,0
20.10.2018 06:00:00 17,4 14,9 15,2 20,6 10 5 15 8 W 1019,8 23 0 0,0
20.10.2018 05:00:00 17,2 14,7 14,7 20,7 10 6 14 7 W 1019,5 21 0 0,0
20.10.2018 04:00:00 16,9 14,7 14,9 20,8 5 3 11 6 NW 1019,5 16 0 0,0
20.10.2018 03:00:00 17,3 14,8 15,1 20,9 8 5 12 7 W 1019,4 21 0 0,0
20.10.2018 02:00:00 17,6 15,0 15,4 21,0 8 4 18 10 W 1019,1 21 0 0,0
20.10.2018 01:00:00 17,8 15,1 15,7 21,0 8 5 14 8 W 1018,9 24 0 0,0
20.10.2018 00:00:00 18,0 15,6 16,0 21,1 8 4 18 10 W 1018,8 20 0 0,0
19.10.2018 23:00:00 18,2 16,0 16,5 21,1 10 5 19 10 W 1018,7 20 0 0,0
19.10.2018 22:00:00 18,5 16,8 16,8 21,2 6 4 11 6 W 1018,5 17 0 0,0
19.10.2018 21:00:00 19,0 17,7 17,0 21,2 6 3 10 5 WNW 1018,1 11 0 0,0
19.10.2018 20:00:00 19,6 18,1 17,6 21,1 6 3 9 5 W 1017,8 11 0 0,0
19.10.2018 19:00:00 20,5 18,6 18,0 21,1 5 3 6 4 W 1017,3 10 0 0,0
19.10.2018 18:00:00 21,4 18,8 20,3 20,9 4 2 9 5 SSE 1016,5 15 41 0,0
19.10.2018 17:00:00 22,5 18,9 22,6 20,8 3 2 13 7 SE 1016,2 19 60 0,0
19.10.2018 16:00:00 22,5 19,3 23,5 20,6 8 5 14 7 SE 1016,3 18 60 0,0
19.10.2018 15:00:00 23,0 19,6 25,3 20,4 8 4 15 8 ESE 1016,0 20 60 0,0
19.10.2018 14:00:00 23,1 19,3 25,9 20,1 10 6 18 10 ESE 1016,4 20 60 0,0
19.10.2018 13:00:00 23,1 18,6 26,1 19,9 11 6 16 9 E 1016,6 20 60 0,0
19.10.2018 12:00:00 23,3 18,0 24,4 19,8 8 4 13 7 E 1016,8 19 60 0,0
19.10.2018 11:00:00 22,9 17,8 22,1 19,7 6 3 11 6 NNE 1016,7 37 60 0,0
19.10.2018 10:00:00 21,9 16,4 19,1 19,8 3 2 14 8 N 1016,4 32 60 0,0
19.10.2018 09:00:00 18,7 14,8 15,7 19,8 9 5 17 9 W 1016,1 39 44 0,0
19.10.2018 08:00:00 17,3 14,2 15,2 19,9 10 5 16 9 W 1015,3 19 0 0,0
19.10.2018 07:00:00 17,2 14,3 15,3 19,9 11 6 19 11 W 1015,0 33 0 0,0
19.10.2018 06:00:00 17,0 14,3 15,1 20,0 12 7 18 10 W 1015,0 31 0 0,0
19.10.2018 05:00:00 17,0 14,3 14,8 20,0 11 6 16 9 W 1014,6 33 0 0,0
19.10.2018 04:00:00 17,0 14,1 14,8 20,1 10 5 19 10 WNW 1014,6 27 0 0,0
19.10.2018 03:00:00 16,5 14,3 14,3 20,1 9 5 12 7 W 1014,2 32 0 0,0
19.10.2018 02:00:00 16,4 14,4 14,2 20,2 4 2 9 5 WNW 1014,1 24 0 0,0
19.10.2018 01:00:00 17,1 14,9 14,6 20,3 4 2 9 5 NNW 1013,9 19 0 0,0
19.10.2018 00:00:00 17,5 15,1 15,1 20,4 0 0 18 10 N 1014,1 13 0 0,0
18.10.2018 23:00:00 18,7 14,6 16,1 20,4 11 6 16 9 WSW 1014,2 47 0 0,0
18.10.2018 22:00:00 18,3 14,8 16,0 20,4 9 5 15 8 W 1013,9 43 0 0,0
18.10.2018 21:00:00 18,0 15,3 16,3 20,4 11 6 16 9 WNW 1013,6 35 0 0,0
18.10.2018 20:00:00 18,5 15,9 16,8 20,4 6 3 13 7 WSW 1013,3 26 0 0,0
18.10.2018 19:00:00 19,6 17,4 17,8 20,3 5 3 13 7 WNW 1012,4 20 0 0,0
18.10.2018 18:00:00 21,1 18,3 19,6 20,2 5 3 10 5 NNW 1012,4 24 10 0,0
18.10.2018 17:00:00 21,6 18,4 21,0 20,1 7 4 23 13 NE 1012,6 23 50 0,0
18.10.2018 16:00:00 22,1 18,5 21,9 20,0 16 8 23 12 ENE 1012,6 20 49 0,0
18.10.2018 15:00:00 22,7 18,0 22,6 19,9 11 6 18 10 NNE 1012,5 30 1 0,0
18.10.2018 14:00:00 22,0 18,4 22,3 19,8 11 6 21 11 NNE 1013,1 29 0 0,0
18.10.2018 13:00:00 21,6 18,2 21,3 19,8 15 8 21 12 NNE 1013,6 27 0 0,0
18.10.2018 12:00:00 22,0 18,2 20,9 19,7 14 7 20 11 NNE 1013,9 35 2 0,0
18.10.2018 11:00:00 21,3 17,3 20,7 19,7 12 6 19 10 N 1013,9 20 28 0,0
18.10.2018 10:00:00 20,5 16,3 20,1 19,7 5 3 11 6 NNW 1013,7 20 9 0,0
18.10.2018 09:00:00 19,0 16,0 17,0 19,7 9 5 13 7 WNW 1013,5 20 4 0,0
18.10.2018 08:00:00 18,1 15,5 16,7 19,7 6 3 16 9 WNW 1013,2 20 0 0,0
18.10.2018 07:00:00 17,7 15,3 16,3 19,8 10 5 17 9 W 1013,0 20 0 0,0
18.10.2018 06:00:00 17,2 15,2 15,5 19,8 10 5 18 10 W 1013,3 20 0 0,0
18.10.2018 05:00:00 16,5 14,9 15,1 19,8 11 6 16 9 W 1013,2 60 0 0,0
18.10.2018 04:00:00 16,6 15,0 15,2 19,9 12 6 16 9 W 1013,6 60 0 0,0
18.10.2018 03:00:00 16,8 15,3 15,2 19,9 9 5 14 8 W 1013,9 56 0 0,0
18.10.2018 02:00:00 17,1 15,3 15,6 19,9 9 5 16 9 W 1014,3 20 0 0,0
18.10.2018 01:00:00 17,3 15,6 15,9 20,0 9 5 15 8 W 1014,7 20 0 0,0
18.10.2018 00:00:00 17,4 15,9 16,0 20,0 6 3 13 7 W 1014,8 20 0 0,0
17.10.2018 23:00:00 17,7 16,2 16,6 20,0 8 4 13 7 W 1015,1 20 0 0,0
17.10.2018 22:00:00 18,3 17,1 16,9 19,9 7 4 9 5 W 1015,2 20 0 0,0
17.10.2018 21:00:00 19,0 17,7 17,4 19,9 6 3 10 5 NW 1014,9 20 0 0,0
17.10.2018 20:00:00 19,5 18,0 18,5 19,9 7 4 10 5 NNW 1014,7 40 0 0,0
17.10.2018 19:00:00 19,7 17,8 18,7 19,8 4 2 10 6 E 1014,5 4,2 0 0,0
17.10.2018 18:00:00 20,1 18,2 19,5 19,8 7 4 15 8 ESE 1013,9 19 0 0,0
17.10.2018 17:00:00 20,1 17,9 19,6 19,7 9 5 22 12 SE 1014,1 49 0 0,0
17.10.2018 16:00:00 20,5 19,0 20,2 19,7 16 8 29 16 SE 1014,4 20 0 0,0
17.10.2018 15:00:00 20,4 19,2 19,0 19,6 24 13 37 20 ESE 1014,3 16 1 16,1
17.10.2018 14:00:00 19,1 18,1 18,7 19,8 11 6 19 10 NNE 1014,4 0,4 0 32,2
17.10.2018 13:00:00 19,1 17,9 18,5 20,0 3 2 17 9 WSW 1014,8 4,9 0 2,0
17.10.2018 12:00:00 18,9 17,6 18,3 20,0 10 5 14 7 NNW 1015,2 59 0 0,0

tt = Température de l'air
td = dewpoint
tt 5cm = Température de l'air 5cm
tt -20cm = Température de l'air -20cm
ff = Vitesse du vent
fx = gusts
dd = Direction du vent
ppp = reduced air pressure
vv = visibility
sd = Ensoleillement
rr = Quantités de précipitations

stations d'obs. à proximité